Location: Skalnate Pleso
(49.1889°N, 20.2450°E)
Time: 16:01:26
(UTC+01:00)

Cosmos 990 Rocket - Pass Details

Date: 19 November 2019
Orbit: 746 x 770 km, 74.0° (Epoch: 06 December)

Event Time Altitude Azimuth Distance (km) Brightness Sun altitude
Exits shadow 04:31:02 60° 275° (W) 866 3.9 -23.1°
Maximum altitude 04:31:23 62° 297° (WNW) 854 3.9 -23.1°
Drops below altitude 10° 04:36:35 10° 18° (NNE) 2,308 6.6 -22.2°
Sets 04:39:00 0° 22° (NNE) 3,241 7.5 -21.8°
